Regional Weather Roundup
Issued by NWS Pendleton, OR

Home | Current Version | Previous Version | Text Only | Print | Product List | Glossary On
Versions: 1 2 3 4 5 6 7 8 9 10 11 12 13 14 15 16 17 18 19 20 21 22 23 24 25 26 27 28 29 30 31 32 33 34 35 36 37 38 39 40 41 42 43 44 45 46 47 48 49 50
000
ASUS46 KPDT 251210
RWRPDT
PENDLETON REGIONAL WEATHER ROUNDUP
NATIONAL WEATHER SERVICE PENDLETON OREGON
400 AM PST THU DEC 25 2014

NOTE: FAIR INDICATES FEW OR NO CLOUDS BELOW 12,000 FEET WITH NO
SIGNIFICANT WEATHER AND/OR OBSTRUCTIONS TO VISIBILITY.

# INDICATES UNOFFICIAL STATION AND DATA

WAZ520-251310-
EAST SLOPES OF WASHINGTON CASCADES

CITY            SKY/WX      TMP DP  RH  WIND    PRES   REMARKS
#BULLFROG 2SW   N/A         36  33  89  SW3     27.60R
#BUMPING DAM    N/A         29  N/A N/A W5      N/A
#CLE ELUM HS    N/A         34  28  78  NW1     29.96R
#CLE ELUM 2NW   N/A         30  29  96  NW2     N/A
#CLE ELUM LAKE  N/A         32  28  85  CALM    30.05R
#CLIFFDEL 2NW   N/A         32  28  85  N1      N/A
#EASTON DOT     N/A         33  32  96  N1      N/A
#GLENWOOD       N/A         23  22  96  CALM    30.06R
#MANASTASH CYN  N/A         27  22  81  CALM    29.94R
#NELSON         N/A         35  31  85  CALM    30.07R
#NELSON 3SW     N/A         33  27  78  CALM    30.26R
#NILE           N/A         35  29  78  N1      29.28R
#PEOH POINT     N/A         27  25  92  SW7     N/A
#SNOWDEN        N/A         33  27  78  NW2     N/A
#SOUTH BLEWITT  N/A         25  24  96  CALM    N/A
#TEANAWAY 4NE   N/A         30  28  92  CALM    N/A
#TROUT LAKE HS  N/A         38  31  76  W5      N/A
#TROUT LAKE 1NE N/A         36  31  82  W8      30.05R
$$

WAZ521-251310-
SIMCOE HIGHLANDS

CITY            SKY/WX      TMP DP  RH  WIND    PRES   REMARKS
#BICKLETON HS   N/A         29  18  63  NW7     34.25S
#SATUS PASS DOT N/A         25  21  84  CALM    N/A
#CENTERVILLE 1SWN/A         34  31  89  W1      30.04R
#GOLDENDALE     N/A         32  31  96  SW2     N/A
#GOLDENDALE 1NE N/A         29  25  85  CALM    N/A
#GOLDENDALE 5WNWN/A         31  28  88  CALM    30.04R
#GOODNOE HILLS  N/A         37  30  75  NW15    N/A    WCI 28
#LYLE 6NE       N/A         37  35  92  SW6     30.04R
$$

WAZ026-251310-
KITTITAS VALLEY

CITY            SKY/WX      TMP DP  RH  WIND    PRES   REMARKS
ELLENSBURG AP   CLEAR       37  27  67  NW20    29.98R WCI 27
6HR MIN TEMP:   34; 6HR MAX TEMP:   39;

#ELLENSBURG CWU N/A         36  29  75  NW12    29.97R WCI 28
#ELLENSBURG 3NE N/A         35  29  78  N6      29.98S
#ELLENSBURG     N/A         39  33  79  NW5     N/A
#ELLENSBURG 1E  N/A         33  26  75  CALM    N/A
#KITTITAS 4N    N/A         32  24  72  CALM    30.02R
#KITTITAS 3S    N/A         31  27  85  CALM    30.02R
#THORP 6N       N/A         32  28  85  NW9     30.05R
$$

WAZ027-251310-
YAKIMA VALLEY

CITY            SKY/WX      TMP DP  RH  WIND    PRES   REMARKS
YAKIMA AIRPORT  CLEAR       33  24  69  W10     30.00R
6HR MIN TEMP:   29; 6HR MAX TEMP:   42;

YAKIMA-VAGABOND CLEAR       34  25  69  E3      30.00R
#DONALD 2NE     N/A         35  23  61  CALM    28.85R
#GRANDVIEW      N/A         31  25  78  CALM    30.05R
#MABTON         N/A         30  26  85  CALM    30.01R
#MOXEE 2E       N/A         42  42  100 N2      29.62F
#NACHES 2SW     N/A         39  30  70  W2      29.98R
#TERRACE HTS    N/A         32  26  78  CALM    30.00R
#WAPATO 4NE     N/A         35  23  61  CALM    28.85R
#WEST VALLEY    N/A         39  28  64  NW3     30.01R
#W YAKIMA       N/A         40  28  62  S3      30.03R
#WHITE SWAN 5E  N/A         28  24  85  SW3     30.04R
#WILEY CITY 3W  N/A         28  20  71  CALM    29.99R
$$

WAZ028-251310-
LOWER COLUMBIA BASIN...WASHINGTON

CITY            SKY/WX      TMP DP  RH  WIND    PRES   REMARKS
PASCO           CLEAR       31  29  92  CALM    30.02R
6HR MIN TEMP:   29; 6HR MAX TEMP:   41;

PROSSER AWOS    N/A         32  27  82  SW3     30.05R
RICHLAND AWOS   CLEAR       32  28  85  CALM    30.02R
#BASIN CITY 5SW N/A         36  31  82  W2      30.00R
#BENTON CITY    N/A         38  28  67  W7      29.93R
#CONNELL 5N     N/A         32  28  85  W2      30.00S
#CONNELL 5NW    N/A         32  28  85  W2      29.97R
#ELTOPIA        N/A         31  28  88  CALM    29.98R
#ELTOPIA 6NW    N/A         36  29  75  W5      28.95R
#KAHLOTUS       N/A         32  27  82  N7      30.00R
#KENNEWICK      N/A         36  33  89  SW3     27.60R
#KENNEWICK 3S   N/A         35  29  78  S2      30.03R
#PASCO-BROADMOORN/A         32  24  72  CALM    29.94R
#PATERSON       N/A         33  31  92  NE1     30.03R
#PROSSER DOT    N/A         33  28  82  W1      N/A
#PROSSER        N/A         39  25  57  SW6     30.02S
#SAGEMOOR 2W    N/A         36  30  79  CALM    29.86R
#TOUCHET 2S     N/A         37  33  85  SW12    30.01R WCI 29
#WEST PASCO     N/A         31  25  78  CALM    30.04R
$$

WAZ029-251310-
FOOTHILLS OF THE BLUES...WASHINGTON

CITY            SKY/WX      TMP DP  RH  WIND    PRES   REMARKS
WALLA WALLA AP  CLEAR       35  31  85  S10     29.99R
6HR MIN TEMP:   35; 6HR MAX TEMP:   38;

#COLLEGE PLACE  N/A         35  27  72  SE1     30.01S
#DAYTON SCHOOL  N/A         34  26  72  CALM    29.99R
#DELANEY DOT    N/A         35  29  78  CALM    N/A
#LOWDEN 2SE     N/A         33  31  92  CALM    29.98R
#PLEASANT VIEW 1N/A         31  29  92  S8      30.05R
#PRESCOTT       N/A         34  32  92  CALM    30.01R
#SUDBURY        N/A         33  N/A N/A CALM    N/A
#WHITMAN COLLEGEN/A         35  32  89  SE3     30.07R
#WAITSBURG 5S   N/A         33  31  92  S7      30.11R
#WALLA WALLA 5E N/A         35  32  89  S9      N/A
#WALLA WALLA U  N/A         34  32  92  CALM    30.03R
#WHITMAN MISSIONN/A         33  30  89  CALM    30.04R
$$

WAZ030-251310-
BLUE MOUNTAINS...WASHINGTON

CITY            SKY/WX      TMP DP  RH  WIND    PRES   REMARKS
#DIXIE 5SE      N/A         29  25  85  CALM    29.85R
$$

ORZ009-041-WAZ024-251310-
COLUMBIA RIVER GORGE

CITY            SKY/WX      TMP DP  RH  WIND    PRES   REMARKS
HOOD RIVER AP   CLOUDY      43  36  76  W3      30.07R
THE DALLES AP   MOCLDY      44  34  68  N5      30.07R
6HR MIN TEMP:   40; 6HR MAX TEMP:   45;

#ARLINGTON AIRPON/A         37  33  85  W5      30.01S
#ARLINGTON HS   N/A         41  33  73  W3      29.98R
#CELILO DOT     N/A         44  32  62  SW7     N/A
#LYLE           N/A         45  40  82  NW14    30.07S WCI 39
#MARYHILL       N/A         41  33  73  N10     N/A
#MARYHILL 2W    N/A         42  36  79  W9      N/A
#MOSIER 1S      N/A         42  30  62  CALM    30.09R
#MURDOCK        N/A         46  40  79  W6      30.09R
#RUFUS DOT      N/A         45  30  55  CALM    N/A

$$

ORZ510-251310-
NORTH CENTRAL OREGON

CITY            SKY/WX      TMP DP  RH  WIND    PRES   REMARKS
#CHENOWITH 1W   N/A         37  34  89  W26     N/A    WCI 25
#COW CYN RST AREN/A         31  27  85  CALM    N/A
#DUFUR 9E       N/A         36  31  82  W10     30.12R
#GRASS VALLEY   N/A         34  32  92  CALM    N/A
#GRASS VALLEY 1SN/A         33  30  89  NW3     30.10R
#KENT DOT       N/A         31  24  75  NW8     N/A
#MAUPIN SCHOOL  N/A         35  29  78  CALM    30.06R
#MORO SCHOOL    N/A         36  34  92  W8      30.03R
#SHANIKO 4NW    N/A         28  27  96  W3      29.97R
#TYGH VALLEY 2NEN/A         32  28  85  NE1     30.07R
#WAPANITIA AIRPON/A         35  30  82  CALM    30.07R
#WASCO DOT      N/A         38  32  79  W9      N/A
#WASCO 5NE      N/A         37  33  85  SW7     30.06R
$$

ORZ511-251310-
CENTRAL OREGON

CITY            SKY/WX      TMP DP  RH  WIND    PRES   REMARKS
BEND AIRPORT    MOCLEAR     32  25  75  NW8     30.02R
MADRAS AIRPORT  PTCLDY      30  27  88  CALM    30.05R
PRINEVILLE AP   CLOUDY      32  30  92  CALM    30.01R
REDMOND AIRPORT MOCLDY      32  26  78  W9      30.01R
6HR MIN TEMP:   32; 6HR MAX TEMP:   34;

#BEND 1SW       N/A         24  23  96  CALM    N/A
#BEND-AWBREY    N/A         32  27  82  N3      30.10R
#BEND-KIM LN    N/A         31  27  85  NW3     29.97R
#CROOKED RVR RANN/A         32  28  85  N21G28  30.09R WCI 20
#CULVER         N/A         33  28  82  CALM    29.98R
#LAKE BILLY CHINN/A         36  18  47  E3      30.14R
#POWELL BUTTE 3EN/A         31  29  92  W1      N/A
#POWELL BUTTE   N/A         32  28  85  N3      29.63R
#PRINEVILLE 3N  N/A         30  28  92  S2      30.06R
#WARM SPRINGS   N/A         30  28  92  CALM    30.02R


ORZ509-251310-
EAST SLOPES OF OREGON CASCADES

CITY            SKY/WX      TMP DP  RH  WIND    PRES   REMARKS
#BLACK BUTTE RNCN/A         35  30  82  CALM    30.09R
#CAMP SHERMAN   N/A         35  28  75  CALM    30.10R
#LA PINE DOT    N/A         31  22  69  W7      N/A
#LA PINE 4NW    N/A         30  24  78  CALM    30.14R
#LAVA BUTTE DOT N/A         23  21  92  CALM    N/A
#MT BACHELOR-MIDN/A         18  16  92  E15G24  N/A    WCI  4
#SISTERS AIRPOR N/A         35  30  82  N10     30.17S
#SISTERS ODOT   N/A         36  N/A N/A CALM    N/A
#SISTERS 3N     N/A         34  23  64  CALM    30.04S
#SUNRIVER       N/A         25  23  92  CALM    29.99R
#TUMALO 3W      N/A         33  26  75  NW10    29.97R
#WANOGA BUTTE D N/A         24  17  74  N7      N/A

$$

ORZ044-251310-
LOWER COLUMBIA BASIN...OREGON

CITY            SKY/WX      TMP DP  RH  WIND    PRES   REMARKS
HERMISTON       CLEAR       28  26  92  CALM    30.02R
6HR MIN TEMP:   28; 6HR MAX TEMP:   37;

#BOARDMAN 3W    N/A         34  32  92  W3      29.74R
#BOARDMAN 8SW   N/A         35  32  89  SW6     30.04R
#ECHO 8SW       N/A         35  30  82  SW7     29.99R
#IONE SCHOOL    N/A         38  25  59  S7      30.02R
#IRRIGON 4NW    N/A         34  34  100 E3      N/A
#UMATILLA SCHOOLN/A         27  27  100 CALM    30.12R
#UMATILLA       N/A         32  27  82  CALM    30.00R
$$

ORZ507-251310-
NORTHERN FOOTHILLS OF THE BLUES

CITY            SKY/WX      TMP DP  RH  WIND    PRES   REMARKS
PENDLETON AIRPT CLEAR       33  30  89  NW10    29.98R
6HR MIN TEMP:   32; 6HR MAX TEMP:   36;

#ADAMS 3WNW     N/A         30  29  96  CALM    30.03R
#ATHENA         N/A         30  28  92  CALM    30.06R
#CAYUSE         N/A         34  31  89  CALM    30.03R
#HELIX SCHOOL   N/A         31  30  96  CALM    30.04R
#HELIX 3N       N/A         31  30  96  SW10    29.94R
#HOLDMAN 5SE    N/A         33  31  92  CALM    30.00R
#HOLDMAN 6E     N/A         30  29  96  CALM    29.84R
#M-F GROVE ELEM N/A         35  30  82  S5      29.98R
#M-FREEWATER 5SEN/A         35  31  85  S5      29.99R
#PENDLETON DNTN N/A         37  33  85  CALM    28.82R
#PDT AQUATIC CTRN/A         36  29  75  CALM    29.97S
#PENDLETON 5NE  N/A         32  30  92  CALM    29.96R
#PENDLETON 7NW  N/A         33  28  82  CALM    27.48R
#PILOT ROCK     N/A         33  25  72  CALM    30.00R
#TUTUILLA       N/A         32  29  89  CALM    30.03R
#UMAPINE 2E     N/A         35  32  89  CALM    29.98R
#WESTON SCHOOL  N/A         33  29  85  W7      29.96R

$$

ORZ508-251310-
SOUTHERN FOOTHILLS OF THE BLUES

CITY            SKY/WX      TMP DP  RH  WIND    PRES   REMARKS
LEXINGTON       PTCLDY      34  32  92  SE3     30.03R
#AJAX           N/A         36  25  64  CALM    29.95R
#CONDON SCHOOL  N/A         32  29  89  CALM    29.95R
#CONDON 5W      N/A         29  25  85  CALM    29.95R
#FOSSIL SCHOOL  N/A         29  26  88  CALM    29.98R
#HEPPNER EOC    N/A         33  29  85  CALM    30.02R
#HEPPNER 4NE    N/A         30  28  92  SW2     30.06R
#LEXINGTON 2SE  N/A         31  27  85  CALM    30.00R
#MIKKALO        N/A         37  29  72  W6      30.01R
#RUGGS 2SW      N/A         32  28  85  W10     30.08R

$$

ORZ502-503-251310-
BLUE MOUNTAINS

CITY            SKY/WX      TMP DP  RH  WIND    PRES   REMARKS
MEACHAM         CLOUDY      29  26  88  VRB5    29.90R
6HR MIN TEMP:   28; 6HR MAX TEMP:   29; 6HR PCP:  0.01;

#BATTLE MTN DOT N/A         27  26  96  N1      N/A
#HEPPNER 15SE   N/A         27  26  96  CALM    29.82R
#LADD CYN SMT   N/A         30  20  66  NW15    N/A    WCI 19
#LADD CREEK ODOTN/A         32  24  72  NE8     N/A
#LONG CREEK HS  N/A         29  29  100 CALM    29.90R
#N POWDER DOT   N/A         31  24  75  N15     N/A    WCI 20
#PIKES PEAK     N/A         27  25  92  NW6     27.99S
#TOLLGATE       N/A         23  22  96  CALM    29.80R
#TROY SCHOOL    N/A         32  30  92  W1      29.81R
#UKIAH          N/A         31  27  85  W8      30.06R
#WESTON 4E      N/A         29  28  96  CALM    29.99R
$$

ORZ505-251310-
JOHN DAY BASIN

CITY            SKY/WX      TMP DP  RH  WIND    PRES   REMARKS
JOHN DAY        CLOUDY      32  28  85  W13     29.93R WCI 22
#DAYVILLE SCHOOLN/A         32  29  89  CALM    30.16S
#MONUMENT HS    N/A         36  27  69  NW1     30.00R
#MT. VERNON 5SE N/A         28  25  88  SW1     29.87S
#WINLOCK        N/A         32  27  82  E2      30.05R
$$

ORZ506-251310-
OCHOCO AND JOHN DAY HIGHLANDS

CITY            SKY/WX      TMP DP  RH  WIND    PRES   REMARKS
#HORSE RIDGE DO N/A         30  23  75  NW8     N/A
#KEYES SMT DOT  N/A         27  26  96  NW7     N/A
#PAULINA SCHOOL N/A         N/A N/A N/A W1      29.95S
#PRAIRIE CITY   N/A         27  23  85  SW2     30.12R
#SENECA         N/A         26  N/A N/A N6      N/A
#SENECA 9NW     N/A         26  23  88  CALM    29.99S
$$

ORZ049-251310-
GRANDE RONDE VALLEY

CITY            SKY/WX      TMP DP  RH  WIND    PRES   REMARKS
LA GRANDE       CLOUDY      34  21  58  NW13    29.90R WCI 25
#COVE           N/A         32  27  82  W3      30.03S
#COVE SCHOOL    N/A         31  25  78  CALM    29.88S
#COVE 6NW       N/A         30  25  81  N5      30.04R
#ELGIN 3N       N/A         30  18  60  SW1     29.63R
#ELGIN 1E       N/A         33  25  72  CALM    N/A
#ISLAND CITY 4N N/A         38  38  100 CALM    30.15R
#LADD CYN DOT   N/A         34  23  64  NW12    N/A    WCI 25
#UNION 1S       N/A         32  27  82  NW1     29.91R
$$

ORZ050-251310-
WALLOWA COUNTY

CITY            SKY/WX      TMP DP  RH  WIND    PRES   REMARKS
#ENTERPRISE AP  N/A         24  19  81  N10     29.80R
#ENTERPRISE HS  N/A         26  22  85  N1      29.89R
#IMNAHA SCHOOL  N/A         37  30  75  SW1     29.90R
#IMNAHA 10S     N/A         32  26  78  SW1     29.87R
#JOSEPH 3N      N/A         22  16  77  N2      29.88R
#JOSEPH 3W      N/A         26  13  57  CALM    29.67R
#LOSTINE        N/A         28  22  78  CALM    29.78R
#MT HOWARD 8000 N/A         12   9  87  CALM    29.60R
#PROMISE 1S     N/A         27  22  81  CALM    30.09R
#SHEEP RDG 7000 N/A         14  12  92  CALM    29.90R
#WALLOWA SCHOOL N/A         30  24  78  W1      30.96R



$$



USA.gov is the U.S. government's official web portal to all federal, state and local government web resources and services.